When you browse on this site, cookies collect data to enhance your experience and personalize the content and advertising you see.
Visit our Privacy Policy to learn more. By continuing to use the site, you agree to this use of cookies and data.
  • In France
  • List of Countries
  • For 7 days
  • Water Temperature
  • Weather Map
  • Weather Widgets
  • user-avatar
    Login

    Hourly Weather Serowe

    Today, 23 August, Friday

    Time Temperature Precipitation Wind Pressure Humidity
    00:00 +11°C° 0 mm 1 mps 672 mmHg 54%
    01:00 +11°C° 0 mm 1 mps 671 mmHg 56%
    02:00 +10°C° 0 mm 1 mps 671 mmHg 59%
    03:00 +10°C° 0 mm 1 mps 671 mmHg 61%
    04:00 +9°C° 0 mm 1 mps 671 mmHg 64%
    05:00 +9°C° 0 mm 1 mps 670 mmHg 67%
    06:00 +11°C° 0 mm 1 mps 671 mmHg 60%
    07:00 +12°C° 0 mm 1 mps 672 mmHg 54%
    08:00 +14°C° 0 mm 1 mps 673 mmHg 47%
    09:00 +17°C° 0 mm 2 mps 674 mmHg 39%
    10:00 +20°C° 0 mm 2 mps 674 mmHg 32%
    11:00 +24°C° 0 mm 3 mps 675 mmHg 24%
    12:00 +25°C° 0 mm 4 mps 674 mmHg 21%
    13:00 +27°C° 0 mm 4 mps 674 mmHg 17%
    14:00 +28°C° 0 mm 4 mps 673 mmHg 14%
    15:00 +28°C° 0 mm 4 mps 673 mmHg 14%
    16:00 +27°C° 0 mm 4 mps 672 mmHg 14%
    17:00 +27°C° 0 mm 5 mps 672 mmHg 14%
    18:00 +23°C° 0 mm 4 mps 672 mmHg 18%
    19:00 +20°C° 0 mm 3 mps 672 mmHg 23%
    20:00 +17°C° 0 mm 2 mps 671 mmHg 28%
    21:00 +16°C° 0 mm 2 mps 671 mmHg 31%
    22:00 +15°C° 0 mm 2 mps 672 mmHg 34%
    23:00 +14°C° 0 mm 2 mps 672 mmHg 37%

    Tomorrow, 24 August, Saturday

    Time Temperature Precipitation Wind Pressure Humidity
    00:00 +13°C° 0 mm 2 mps 671 mmHg 39%
    01:00 +12°C° 0 mm 2 mps 671 mmHg 41%
    02:00 +12°C° 0 mm 2 mps 671 mmHg 42%
    03:00 +11°C° 0 mm 1 mps 671 mmHg 45%
    04:00 +10°C° 0 mm 1 mps 671 mmHg 47%
    05:00 +10°C° 0 mm 1 mps 671 mmHg 50%
    06:00 +10°C° 0 mm 2 mps 671 mmHg 46%
    07:00 +13°C° 0 mm 2 mps 672 mmHg 43%
    08:00 +15°C° 0 mm 2 mps 673 mmHg 39%
    09:00 +18°C° 0 mm 3 mps 674 mmHg 32%
    10:00 +21°C° 0 mm 4 mps 674 mmHg 24%
    11:00 +25°C° 0 mm 5 mps 675 mmHg 17%
    12:00 +26°C° 0 mm 5 mps 674 mmHg 15%
    13:00 +27°C° 0 mm 5 mps 673 mmHg 12%
    14:00 +28°C° 0 mm 5 mps 673 mmHg 10%
    15:00 +28°C° 0 mm 5 mps 672 mmHg 10%
    16:00 +27°C° 0 mm 5 mps 672 mmHg 11%
    17:00 +26°C° 0 mm 5 mps 671 mmHg 11%
    18:00 +22°C° 0 mm 4 mps 671 mmHg 15%
    19:00 +19°C° 0 mm 3 mps 671 mmHg 20%
    20:00 +16°C° 0 mm 2 mps 670 mmHg 24%
    21:00 +15°C° 0 mm 2 mps 671 mmHg 26%
    22:00 +14°C° 0 mm 2 mps 671 mmHg 28%
    23:00 +13°C° 0 mm 2 mps 671 mmHg 31%

    Day after tomorrow, 25 August, Sunday

    Time Temperature Precipitation Wind Pressure Humidity
    00:00 +12°C° 0 mm 1 mps 670 mmHg 36%
    01:00 +12°C° 0 mm 1 mps 670 mmHg 42%
    02:00 +11°C° 0 mm 1 mps 670 mmHg 48%
    03:00 +10°C° 0 mm 1 mps 669 mmHg 52%
    04:00 +10°C° 0 mm 1 mps 669 mmHg 57%
    05:00 +10°C° 0 mm 1 mps 669 mmHg 61%
    06:00 +11°C° 0 mm 1 mps 670 mmHg 58%
    07:00 +13°C° 0 mm 1 mps 671 mmHg 55%
    08:00 +15°C° 0 mm 2 mps 672 mmHg 52%
    09:00 +18°C° 0 mm 3 mps 672 mmHg 45%
    10:00 +21°C° 0 mm 4 mps 672 mmHg 38%
    11:00 +25°C° 0 mm 5 mps 673 mmHg 30%
    12:00 +26°C° 0 mm 5 mps 672 mmHg 26%
    13:00 +28°C° 0 mm 5 mps 672 mmHg 21%
    14:00 +29°C° 0 mm 5 mps 671 mmHg 16%
    15:00 +29°C° 0 mm 5 mps 671 mmHg 17%
    16:00 +28°C° 0 mm 5 mps 670 mmHg 17%
    17:00 +28°C° 0 mm 5 mps 670 mmHg 17%
    18:00 +25°C° 0 mm 4 mps 670 mmHg 23%
    19:00 +21°C° 0 mm 3 mps 669 mmHg 28%
    20:00 +18°C° 0 mm 2 mps 669 mmHg 33%
    21:00 +17°C° 0 mm 2 mps 669 mmHg 36%
    22:00 +17°C° 0 mm 2 mps 669 mmHg 38%
    23:00 +16°C° 0 mm 1 mps 669 mmHg 40%

    26 August, Monday

    Time Temperature Precipitation Wind Pressure Humidity
    00:00 +15°C° 0 mm 1 mps 669 mmHg 43%
    01:00 +15°C° 0 mm 1 mps 669 mmHg 46%
    02:00 +14°C° 0 mm 1 mps 668 mmHg 49%
    03:00 +14°C° 0 mm 1 mps 668 mmHg 50%
    04:00 +13°C° 0 mm 1 mps 668 mmHg 52%
    05:00 +12°C° 0 mm 1 mps 668 mmHg 54%
    06:00 +14°C° 0 mm 1 mps 669 mmHg 48%
    07:00 +16°C° 0 mm 1 mps 670 mmHg 42%
    08:00 +19°C° 0 mm 1 mps 671 mmHg 37%
    09:00 +23°C° 0 mm 2 mps 671 mmHg 30%
    10:00 +26°C° 0 mm 3 mps 672 mmHg 22%
    11:00 +29°C° 0 mm 3 mps 672 mmHg 15%
    12:00 +30°C° 0 mm 4 mps 672 mmHg 13%
    13:00 +32°C° 0 mm 4 mps 671 mmHg 11%
    14:00 +33°C° 0 mm 4 mps 670 mmHg 10%
    15:00 +32°C° 0 mm 4 mps 670 mmHg 10%
    16:00 +32°C° 0 mm 4 mps 670 mmHg 10%
    17:00 +30°C° 0 mm 4 mps 669 mmHg 10%
    18:00 +27°C° 0 mm 4 mps 669 mmHg 14%
    19:00 +24°C° 0 mm 3 mps 669 mmHg 17%
    20:00 +20°C° 0 mm 2 mps 669 mmHg 21%
    21:00 +19°C° 0 mm 2 mps 669 mmHg 23%
    22:00 +18°C° 0 mm 2 mps 669 mmHg 26%
    23:00 +17°C° 0 mm 2 mps 669 mmHg 29%

    27 August, Tuesday

    Time Temperature Precipitation Wind Pressure Humidity
    00:00 +17°C° 0 mm 2 mps 669 mmHg 32%
    01:00 +16°C° 0 mm 2 mps 669 mmHg 35%
    02:00 +14°C° 0 mm 3 mps 668 mmHg 38%
    03:00 +15°C° 0 mm 2 mps 668 mmHg 42%
    04:00 +14°C° 0 mm 2 mps 668 mmHg 46%
    05:00 +13°C° 0 mm 2 mps 668 mmHg 51%
    06:00 +15°C° 0 mm 2 mps 669 mmHg 47%
    07:00 +17°C° 0 mm 2 mps 669 mmHg 43%
    08:00 +18°C° 0 mm 3 mps 670 mmHg 39%
    09:00 +21°C° 0 mm 3 mps 670 mmHg 33%
    10:00 +26°C° 0 mm 3 mps 671 mmHg 26%
    11:00 +29°C° 0 mm 4 mps 671 mmHg 20%
    12:00 +30°C° 0 mm 3 mps 671 mmHg 17%
    13:00 +32°C° 0 mm 2 mps 670 mmHg 14%
    14:00 +34°C° 0 mm 1 mps 670 mmHg 11%
    15:00 +33°C° 0 mm 1 mps 669 mmHg 11%
    16:00 +32°C° 0 mm 2 mps 669 mmHg 11%
    17:00 +32°C° 0 mm 2 mps 668 mmHg 11%
    18:00 +28°C° 0 mm 2 mps 668 mmHg 15%
    19:00 +25°C° 0 mm 2 mps 668 mmHg 18%
    20:00 +22°C° 0 mm 1 mps 667 mmHg 21%
    21:00 +21°C° 0 mm 1 mps 667 mmHg 23%
    22:00 +20°C° 0 mm 1 mps 667 mmHg 25%
    23:00 +19°C° 0 mm 1 mps 667 mmHg 27%

    28 August, Wednesday

    Time Temperature Precipitation Wind Pressure Humidity
    00:00 +19°C° 0 mm 1 mps 667 mmHg 28%
    01:00 +18°C° 0 mm 1 mps 667 mmHg 29%
    02:00 +17°C° 0 mm 2 mps 667 mmHg 30%
    03:00 +17°C° 0 mm 2 mps 666 mmHg 31%
    04:00 +16°C° 0 mm 2 mps 666 mmHg 32%
    05:00 +16°C° 0 mm 2 mps 666 mmHg 33%
    06:00 +17°C° 0 mm 2 mps 667 mmHg 31%
    07:00 +19°C° 0 mm 2 mps 668 mmHg 29%
    08:00 +20°C° 0 mm 2 mps 668 mmHg 27%
    09:00 +24°C° 0 mm 3 mps 669 mmHg 22%
    10:00 +28°C° 0 mm 3 mps 669 mmHg 18%
    11:00 +32°C° 0 mm 4 mps 670 mmHg 14%
    12:00 +33°C° 0 mm 4 mps 669 mmHg 13%
    13:00 +34°C° 0 mm 3 mps 668 mmHg 11%
    14:00 +35°C° 0 mm 3 mps 668 mmHg 10%
    15:00 +34°C° 0 mm 3 mps 667 mmHg 10%
    16:00 +34°C° 0 mm 3 mps 667 mmHg 10%
    17:00 +33°C° 0 mm 3 mps 667 mmHg 11%
    18:00 +29°C° 0 mm 3 mps 667 mmHg 14%
    19:00 +26°C° 0 mm 3 mps 666 mmHg 17%
    20:00 +22°C° 0 mm 3 mps 666 mmHg 21%
    21:00 +21°C° 0 mm 3 mps 666 mmHg 22%
    22:00 +20°C° 0 mm 4 mps 667 mmHg 24%
    23:00 +20°C° 0 mm 4 mps 667 mmHg 26%
    Show more